Location: Berville
(49.1893°N, 2.0748°E)
Time: 01:40:56
(UTC+00:00)

Cosmos 1758 Rocket - Pass Details

Date: 08 February 2023
Orbit: 601 x 634 km, 82.5° (Epoch: 24 March)

Event Time Altitude Azimuth Distance (km) Brightness Sun altitude
Rises 18:44:38 0° 174° (S) 2,852 6.9 -17.5°
Reaches altitude 10° 18:46:52 10° 169° (SSE) 1,958 6.0 -17.9°
Maximum altitude 18:51:03 50° 94° (E) 788 3.6 -18.6°
Drops below altitude 10° 18:55:19 10° 19° (NNE) 1,994 6.0 -19.3°
Sets 18:57:37 0° 15° (NNE) 2,911 6.9 -19.6°
